Weather History for Breckenridge, TX

Change the Weather History Date:

Tuesday, October 23, 2012

  Actual Average (KABI) Record (KABI)
Temperature  
Mean Temperature 78 °F 64 °F  
Max Temperature 86 °F 75 °F 90 °F (1989)
Min Temperature 69 °F 52 °F 33 °F (1917)
Degree Days  
Heating Degree Days 0 4  
Month to date heating degree days 53  
Since 1 July heating degree days 64  
Cooling Degree Days 12 3  
Month to date cooling degree days 101  
Year to date cooling degree days 2372  
Growing Degree Days 28 (Base 50)    
Moisture  
Dew Point 65 °F    
Average Humidity 69    
Maximum Humidity 94    
Minimum Humidity 48    
Precipitation  
Precipitation 0.00 in 0.10 in 1.56 in (1920)
Month to date precipitation 2.28  
Year to date precipitation 21.48  
Sea Level Pressure  
Sea Level Pressure 29.90 in    
Wind  
Wind Speed 13 mph (South)    
Max Wind Speed 21 mph    
Max Gust Speed 28 mph    
Visibility 10 miles    
Events      
T = Trace of Precipitation, MM = Missing Value Source: NWS Daily Summary

Daily Weather History Graph

Daily Weather History Graph

Search for Another Location

Airport:

Trip Planner

Search our weather history database for the weather conditions in past years. The results will help you decide how hot, cold, wet, or windy it might be!

Date:

Astronomy

Oct. 23, 2012 Rise Set
Actual Time 7:46 AM CDT 6:52 PM CDT
Civil Twilight 7:21 AM CDT 7:18 PM CDT
Nautical Twilight 6:52 AM CDT 7:46 PM CDT
Astronomical Twilight 6:23 AM CDT 8:15 PM CDT
Moon 3:20 PM CDT (10/23) 1:58 AM CDT (10/23)
Length of Visible Light 11h 56m
Length of Day
11h 06m
Waxing Gibbous, 67% of the Moon is Illuminated
Oct 23
Waxing Gibbous
Oct 29
Full
Nov 6
Last Quarter
Nov 13
New
Nov 20
First Quarter

Hourly Weather History & Observations

Time (CDT) Temp. Heat Index Dew Point Humidity Pressure Visibility Wind Dir Wind Speed Gust Speed Precip Events Conditions
12:15 AM 73.4 °F - 68.0 °F 83% 29.89 in 10.0 mi South 15.0 mph 25.3 mph N/A   Clear
12:35 AM 73.4 °F - 68.0 °F 83% 29.89 in 10.0 mi South 13.8 mph 19.6 mph N/A   Clear
1:15 AM 73.4 °F - 68.0 °F 83% 29.89 in 10.0 mi South 13.8 mph 21.9 mph N/A   Clear
1:55 AM 71.6 °F - 68.0 °F 88% 29.89 in 10.0 mi South 11.5 mph - N/A   Clear
2:35 AM 71.6 °F - 68.0 °F 88% 29.89 in 10.0 mi South 12.7 mph 16.1 mph N/A   Clear
2:55 AM 71.6 °F - 68.0 °F 88% 29.88 in 10.0 mi South 13.8 mph 19.6 mph N/A   Clear
3:15 AM 71.6 °F - 68.0 °F 88% 29.88 in 10.0 mi South 13.8 mph - N/A   Clear
3:35 AM 71.6 °F - 68.0 °F 88% 29.88 in 10.0 mi South 13.8 mph 19.6 mph N/A   Clear
3:55 AM 71.6 °F - 68.0 °F 88% 29.88 in 10.0 mi South 13.8 mph 19.6 mph N/A   Clear
4:15 AM 71.6 °F - 66.2 °F 83% 29.88 in 10.0 mi South 12.7 mph 18.4 mph N/A   Clear
4:35 AM 71.6 °F - 66.2 °F 83% 29.87 in 10.0 mi South 10.4 mph 23.0 mph N/A   Clear
4:55 AM 71.6 °F - 66.2 °F 83% 29.87 in 10.0 mi South 12.7 mph - N/A   Clear
5:15 AM 71.6 °F - 66.2 °F 83% 29.88 in 10.0 mi South 12.7 mph 19.6 mph N/A   Clear
5:55 AM 71.6 °F - 66.2 °F 83% 29.88 in 10.0 mi South 13.8 mph - N/A   Clear
6:35 AM 69.8 °F - 68.0 °F 94% 29.90 in 10.0 mi South 11.5 mph - N/A   Clear
6:55 AM 69.8 °F - 68.0 °F 94% 29.90 in 10.0 mi South 9.2 mph - N/A   Clear
7:15 AM 69.8 °F - 68.0 °F 94% 29.91 in 10.0 mi South 10.4 mph - N/A   Clear
7:35 AM 69.8 °F - 68.0 °F 94% 29.91 in 10.0 mi North - - N/A   Clear
7:55 AM 69.8 °F - 68.0 °F 94% 29.91 in 10.0 mi South 10.4 mph - N/A   Clear
8:55 AM 71.6 °F - 68.0 °F 88% 29.93 in 10.0 mi South 12.7 mph 18.4 mph N/A   Clear
9:35 AM 73.4 °F - 68.0 °F 83% 29.93 in 10.0 mi South 12.7 mph 18.4 mph N/A   Clear
10:15 AM 77.0 °F - 68.0 °F 74% 29.94 in 10.0 mi SSW 15.0 mph 24.2 mph N/A   Clear
10:55 AM 78.8 °F - 66.2 °F 65% 29.94 in 10.0 mi SSW 20.7 mph 27.6 mph N/A   Scattered Clouds
11:15 AM 80.6 °F 82.7 °F 66.2 °F 61% 29.94 in 10.0 mi SSW 15.0 mph 24.2 mph N/A   Scattered Clouds
11:55 AM 80.6 °F 82.3 °F 64.4 °F 58% 29.94 in 10.0 mi SSW 13.8 mph 24.2 mph N/A   Overcast
12:15 PM 82.4 °F 83.9 °F 64.4 °F 54% 29.94 in 10.0 mi SW 11.5 mph 21.9 mph N/A   Mostly Cloudy
12:35 PM 80.6 °F 82.3 °F 64.4 °F 58% 29.94 in 10.0 mi SSW 17.3 mph 23.0 mph N/A   Mostly Cloudy
1:15 PM 82.4 °F 83.9 °F 64.4 °F 54% 29.93 in 10.0 mi SW 10.4 mph - N/A   Mostly Cloudy
1:35 PM 82.4 °F 83.9 °F 64.4 °F 54% 29.92 in 10.0 mi SW 13.8 mph 19.6 mph N/A   Mostly Cloudy
1:55 PM 82.4 °F 83.9 °F 64.4 °F 54% 29.91 in 10.0 mi SSW 17.3 mph - N/A   Overcast
2:35 PM 84.2 °F 85.6 °F 64.4 °F 51% 29.89 in 10.0 mi SSW 11.5 mph 20.7 mph N/A   Mostly Cloudy
2:55 PM 84.2 °F 85.6 °F 64.4 °F 51% 29.89 in 10.0 mi SSW 13.8 mph - N/A   Mostly Cloudy
3:15 PM 82.4 °F 83.9 °F 64.4 °F 54% 29.88 in 10.0 mi SSW 13.8 mph 19.6 mph N/A   Mostly Cloudy
3:35 PM 82.4 °F 83.9 °F 64.4 °F 54% 29.88 in 10.0 mi SSW 11.5 mph - N/A   Mostly Cloudy
3:55 PM 86.0 °F 87.3 °F 64.4 °F 48% 29.87 in 10.0 mi South 11.5 mph 16.1 mph N/A   Mostly Cloudy
4:15 PM 84.2 °F 85.0 °F 62.6 °F 48% 29.87 in 10.0 mi SSW 15.0 mph - N/A   Scattered Clouds
4:35 PM 84.2 °F 85.0 °F 62.6 °F 48% 29.87 in 10.0 mi South 13.8 mph - N/A   Scattered Clouds
4:55 PM 84.2 °F 85.0 °F 62.6 °F 48% 29.87 in 10.0 mi South 12.7 mph 18.4 mph N/A   Scattered Clouds
5:15 PM 84.2 °F 85.0 °F 62.6 °F 48% 29.86 in 10.0 mi South 11.5 mph 18.4 mph N/A   Scattered Clouds
5:35 PM 84.2 °F 85.0 °F 62.6 °F 48% 29.85 in 10.0 mi South 13.8 mph 21.9 mph N/A   Scattered Clouds
5:55 PM 84.2 °F 85.0 °F 62.6 °F 48% 29.85 in 10.0 mi South 9.2 mph 18.4 mph N/A   Clear
6:15 PM 82.4 °F 83.4 °F 62.6 °F 51% 29.86 in 10.0 mi North - - N/A   Clear
6:35 PM 80.6 °F 81.8 °F 62.6 °F 54% 29.86 in 10.0 mi North - - N/A   Clear
6:55 PM 80.6 °F 81.8 °F 62.6 °F 54% 29.86 in 10.0 mi South 11.5 mph - N/A   Clear
7:15 PM 78.8 °F - 62.6 °F 57% 29.87 in 10.0 mi South 6.9 mph - N/A   Clear
7:35 PM 78.8 °F - 62.6 °F 57% 29.88 in 10.0 mi South 8.1 mph - N/A   Clear
7:55 PM 77.0 °F - 62.6 °F 61% 29.88 in 10.0 mi SSE 8.1 mph - N/A   Clear
8:15 PM 77.0 °F - 64.4 °F 65% 29.89 in 10.0 mi SSE 8.1 mph - N/A   Clear
8:35 PM 77.0 °F - 64.4 °F 65% 29.90 in 10.0 mi SSE 9.2 mph - N/A   Clear
8:55 PM 77.0 °F - 64.4 °F 65% 29.90 in 10.0 mi South 9.2 mph - N/A   Clear
9:15 PM 77.0 °F - 64.4 °F 65% 29.90 in 10.0 mi South 12.7 mph 17.3 mph N/A   Clear
9:35 PM 75.2 °F - 64.4 °F 69% 29.90 in 10.0 mi South 10.4 mph 20.7 mph N/A   Clear
9:55 PM 75.2 °F - 64.4 °F 69% 29.90 in 10.0 mi South 11.5 mph 18.4 mph N/A   Clear
10:15 PM 75.2 °F - 64.4 °F 69% 29.91 in 10.0 mi South 12.7 mph 20.7 mph N/A   Clear
10:35 PM 73.4 °F - 64.4 °F 73% 29.92 in 10.0 mi SSE 9.2 mph 18.4 mph N/A   Clear
10:55 PM 73.4 °F - 64.4 °F 73% 29.92 in 10.0 mi South 6.9 mph - N/A   Clear
11:15 PM 73.4 °F - 64.4 °F 73% 29.92 in 10.0 mi South 10.4 mph - N/A   Clear
11:35 PM 73.4 °F - 64.4 °F 73% 29.92 in 10.0 mi South 10.4 mph - N/A   Clear
11:55 PM 73.4 °F - 64.4 °F 73% 29.92 in 10.0 mi South 9.2 mph - N/A   Clear